Pagina principale
METAR-TAF:

METAR-TAF

Aeroporti :

Jendouba, Tunisia

latitudine: 36-29N, longitudine: 008-48E, altezza: 143 m

Osservazione

Il bollettino è stato emesso 1 ora e 2 minuti fa, alle 12:00 UTC
Vento 6 kt da sud/sud-ovest, variando fra sud/sud-est e sud-ovest
Temperature 16°C
Umidità 59%
Pressione 1026 hPa
Visibilità 10 km o più
Poco nuvoloso ad un'altezza di 2000 ft

METAR: DTTN 161200Z 20006KT 150V230 9999 FEW020 16/08 Q1026

Ora: 14:02 (13:02 UTC)


TAF: mancante

Osservazioni e previsioni meteorologiche di più di 4000 aeroporti (messaggi METAR e TAF).

Le stazioni disponibili sono rappresentate dai dischi gialli e rossi sulla carta.

Puntare il mouse per vedere il nome della stazione.

Clicca sopra per visualizzare le osservazioni e previsioni meteorologiche.

Per cambiare la mappa : fare clic sui pulsanti verdi con una croce nera per ingrandire, il pulsante verde con un trattino per diminuire, o sulla freccia verde per le mappe adiacenti.


METAR-TAF: